Time,TemperatureF,DewpointF,PressureIn,WindDirection,WindDirectionDegrees,WindSpeedMPH,WindSpeedGustMPH,Humidity,HourlyPrecipIn,Conditions,Clouds,dailyrainin,SoftwareType,DateUTC
2014-12-28 00:03:00,51.1,46.5,30.03,SE,135,3.4,3.6,84,0.04,,,0.00,WUHU216HW,2014-12-28 05:03:00,
2014-12-28 00:08:00,50.9,46.3,30.02,SE,135,2.4,4.7,84,0.08,,,0.04,WUHU216HW,2014-12-28 05:08:00,
2014-12-28 00:13:00,50.9,46.3,30.02,SE,135,8.5,8.5,84,0.12,,,0.08,WUHU216HW,2014-12-28 05:13:00,
2014-12-28 00:18:00,50.8,46.1,30.01,SE,135,5.5,8.5,84,0.14,,,0.10,WUHU216HW,2014-12-28 05:18:00,
2014-12-28 00:23:00,50.8,46.1,30.01,SSE,150,3.2,7.2,84,0.16,,,0.12,WUHU216HW,2014-12-28 05:23:00,
2014-12-28 00:28:00,50.8,46.1,30.02,South,180,4.0,7.2,84,0.16,,,0.12,WUHU216HW,2014-12-28 05:28:00,
2014-12-28 00:33:00,50.6,45.9,30.01,SSE,147,3.0,4.0,84,0.16,,,0.12,WUHU216HW,2014-12-28 05:33:00,
2014-12-28 00:38:00,50.6,45.9,30.01,ESE,113,2.2,3.4,84,0.16,,,0.12,WUHU216HW,2014-12-28 05:38:00,
2014-12-28 00:43:00,50.6,45.9,30.00,SE,135,3.6,3.6,84,0.19,,,0.15,WUHU216HW,2014-12-28 05:43:00,
2014-12-28 00:48:00,50.4,45.7,30.00,SSE,158,1.8,3.6,84,0.19,,,0.15,WUHU216HW,2014-12-28 05:48:00,
2014-12-28 00:53:00,50.4,45.7,30.00,South,180,3.6,3.8,84,0.19,,,0.15,WUHU216HW,2014-12-28 05:53:00,
2014-12-28 00:58:00,50.4,45.7,29.99,SE,135,5.1,5.1,84,0.19,,,0.17,WUHU216HW,2014-12-28 05:58:00,
2014-12-28 01:03:00,50.4,45.7,29.98,ESE,113,6.3,6.3,84,0.13,,,0.17,WUHU216HW,2014-12-28 06:03:00,
2014-12-28 01:08:00,50.6,45.9,29.97,SE,135,6.9,6.9,84,0.11,,,0.17,WUHU216HW,2014-12-28 06:08:00,
2014-12-28 01:13:00,50.6,45.9,29.98,SSW,210,2.7,6.9,84,0.09,,,0.17,WUHU216HW,2014-12-28 06:13:00,
2014-12-28 01:18:00,50.6,45.9,29.98,South,180,3.4,6.9,84,0.09,,,0.19,WUHU216HW,2014-12-28 06:18:00,
2014-12-28 01:23:00,50.8,46.1,29.98,SW,218,3.5,6.3,84,0.07,,,0.19,WUHU216HW,2014-12-28 06:23:00,
2014-12-28 01:28:00,50.8,46.1,29.98,SSE,153,2.5,6.3,84,0.09,,,0.21,WUHU216HW,2014-12-28 06:28:00,
2014-12-28 01:33:00,50.8,46.1,29.98,South,180,4.3,4.3,84,0.09,,,0.21,WUHU216HW,2014-12-28 06:33:00,
2014-12-28 01:38:00,50.8,46.1,29.98,South,180,5.4,5.4,84,0.10,,,0.22,WUHU216HW,2014-12-28 06:38:00,
2014-12-28 01:43:00,50.8,46.1,29.98,South,178,2.5,5.4,84,0.09,,,0.24,WUHU216HW,2014-12-28 06:43:00,
2014-12-28 01:48:00,50.8,46.1,29.98,South,180,2.7,5.4,84,0.11,,,0.26,WUHU216HW,2014-12-28 06:48:00,
2014-12-28 01:53:00,50.8,46.1,29.98,SE,124,3.3,5.4,84,0.14,,,0.29,WUHU216HW,2014-12-28 06:53:00,
2014-12-28 01:58:00,50.8,46.1,29.98,ESE,113,4.0,5.4,84,0.14,,,0.31,WUHU216HW,2014-12-28 06:58:00,
2014-12-28 02:03:00,50.9,46.3,29.97,ESE,113,4.7,5.4,84,0.16,,,0.33,WUHU216HW,2014-12-28 07:03:00,
2014-12-28 02:08:00,50.8,46.1,29.97,SE,140,5.2,6.3,84,0.18,,,0.35,WUHU216HW,2014-12-28 07:08:00,
2014-12-28 02:13:00,50.8,46.1,29.97,SE,126,3.3,6.9,84,0.20,,,0.37,WUHU216HW,2014-12-28 07:13:00,
2014-12-28 02:18:00,50.8,46.1,29.97,SE,125,4.2,6.9,84,0.20,,,0.39,WUHU216HW,2014-12-28 07:18:00,
2014-12-28 02:23:00,50.8,46.4,29.97,South,180,4.9,6.3,85,0.24,,,0.43,WUHU216HW,2014-12-28 07:23:00,
2014-12-28 02:28:00,50.8,46.4,29.97,SE,125,4.3,6.3,85,0.24,,,0.45,WUHU216HW,2014-12-28 07:28:00,
2014-12-28 02:33:00,50.8,46.4,29.96,SE,135,4.9,7.8,85,0.26,,,0.47,WUHU216HW,2014-12-28 07:33:00,
2014-12-28 02:38:00,50.8,46.4,29.95,SSE,158,1.3,7.8,85,0.27,,,0.49,WUHU216HW,2014-12-28 07:38:00,
2014-12-28 02:43:00,50.8,46.4,29.95,SE,135,4.3,7.2,85,0.25,,,0.49,WUHU216HW,2014-12-28 07:43:00,
2014-12-28 02:48:00,50.8,46.4,29.94,SSW,203,3.4,5.1,85,0.23,,,0.49,WUHU216HW,2014-12-28 07:48:00,
2014-12-28 02:53:00,50.8,46.4,29.94,ESE,123,3.8,5.1,85,0.22,,,0.51,WUHU216HW,2014-12-28 07:53:00,
2014-12-28 02:58:00,50.8,46.4,29.94,SSE,158,4.0,6.7,85,0.20,,,0.51,WUHU216HW,2014-12-28 07:58:00,
2014-12-28 03:03:00,50.8,46.4,29.94,SE,135,5.4,6.7,85,0.18,,,0.51,WUHU216HW,2014-12-28 08:03:00,
2014-12-28 03:08:00,50.8,46.4,29.94,SE,136,2.7,5.8,85,0.16,,,0.51,WUHU216HW,2014-12-28 08:08:00,
2014-12-28 03:13:00,50.8,46.4,29.94,SE,135,5.4,5.4,85,0.14,,,0.53,WUHU216HW,2014-12-28 08:13:00,
2014-12-28 03:18:00,50.8,46.4,29.94,SE,126,5.4,6.5,85,0.12,,,0.53,WUHU216HW,2014-12-28 08:18:00,
2014-12-28 03:23:00,50.8,46.4,29.94,SE,146,3.6,6.5,85,0.10,,,0.53,WUHU216HW,2014-12-28 08:23:00,
2014-12-28 03:28:00,50.8,46.4,29.94,South,188,1.5,4.3,85,0.08,,,0.53,WUHU216HW,2014-12-28 08:28:00,
2014-12-28 03:33:00,50.8,46.4,29.94,South,180,2.0,3.4,85,0.06,,,0.53,WUHU216HW,2014-12-28 08:33:00,
2014-12-28 03:38:00,50.8,46.4,29.95,SSW,203,3.4,3.4,85,0.04,,,0.53,WUHU216HW,2014-12-28 08:38:00,
2014-12-28 03:43:00,50.8,46.4,29.94,SE,135,2.0,3.4,85,0.04,,,0.53,WUHU216HW,2014-12-28 08:43:00,
2014-12-28 03:48:00,50.8,46.4,29.94,SSW,203,6.3,6.3,85,0.04,,,0.53,WUHU216HW,2014-12-28 08:48:00,
2014-12-28 03:53:00,50.8,46.4,29.94,SSE,158,3.5,6.3,85,0.02,,,0.53,WUHU216HW,2014-12-28 08:53:00,
2014-12-28 03:58:00,50.8,46.4,29.94,SE,135,4.0,5.4,85,0.02,,,0.53,WUHU216HW,2014-12-28 08:58:00,
2014-12-28 04:03:00,50.9,46.5,29.95,South,187,3.5,5.6,85,0.02,,,0.53,WUHU216HW,2014-12-28 09:03:00,
2014-12-28 04:08:00,50.9,46.5,29.94,South,188,3.3,5.6,85,0.00,,,0.53,WUHU216HW,2014-12-28 09:08:00,
2014-12-28 04:13:00,50.9,46.5,29.94,SSE,158,1.3,3.6,85,0.00,,,0.53,WUHU216HW,2014-12-28 09:13:00,
2014-12-28 04:18:00,50.9,46.5,29.94,South,180,2.7,5.4,85,0.00,,,0.53,WUHU216HW,2014-12-28 09:18:00,
2014-12-28 04:23:00,50.8,46.4,29.93,ESE,119,2.2,6.3,85,0.00,,,0.53,WUHU216HW,2014-12-28 09:23:00,
2014-12-28 04:28:00,50.9,46.5,29.92,SSE,158,5.4,6.3,85,0.00,,,0.53,WUHU216HW,2014-12-28 09:28:00,
2014-12-28 04:33:00,50.9,46.5,29.91,SE,135,6.0,6.0,85,0.00,,,0.53,WUHU216HW,2014-12-28 09:33:00,
2014-12-28 04:38:00,50.9,46.5,29.91,SE,135,4.5,6.0,85,0.02,,,0.55,WUHU216HW,2014-12-28 09:38:00,
2014-12-28 04:43:00,50.9,46.5,29.91,ESE,120,3.4,5.6,85,0.02,,,0.55,WUHU216HW,2014-12-28 09:43:00,
2014-12-28 04:48:00,51.1,46.7,29.92,South,180,2.5,4.9,85,0.02,,,0.55,WUHU216HW,2014-12-28 09:48:00,
2014-12-28 04:53:00,51.1,46.7,29.92,SW,225,1.2,3.4,85,0.02,,,0.55,WUHU216HW,2014-12-28 09:53:00,
2014-12-28 04:58:00,51.1,46.7,29.92,SSW,196,1.8,3.4,85,0.02,,,0.55,WUHU216HW,2014-12-28 09:58:00,
2014-12-28 05:03:00,51.1,46.7,29.92,SSE,165,1.7,3.1,85,0.02,,,0.55,WUHU216HW,2014-12-28 10:03:00,
2014-12-28 05:08:00,51.1,46.7,29.92,SSW,194,1.3,2.7,85,0.02,,,0.55,WUHU216HW,2014-12-28 10:08:00,
2014-12-28 05:13:00,51.1,46.7,29.92,South,180,2.5,2.5,85,0.02,,,0.55,WUHU216HW,2014-12-28 10:13:00,
2014-12-28 05:18:00,51.1,46.7,29.92,SSW,197,1.0,2.5,85,0.02,,,0.55,WUHU216HW,2014-12-28 10:18:00,
2014-12-28 05:23:00,51.1,46.7,29.92,WSW,248,0.9,1.8,85,0.02,,,0.55,WUHU216HW,2014-12-28 10:23:00,
2014-12-28 05:28:00,51.1,46.7,29.92,SE,135,0.8,1.3,85,0.02,,,0.55,WUHU216HW,2014-12-28 10:28:00,
2014-12-28 05:33:00,51.1,46.7,29.92,SE,135,0.2,2.2,85,0.00,,,0.55,WUHU216HW,2014-12-28 10:33:00,
2014-12-28 05:38:00,51.1,46.7,29.91,SE,135,0.9,2.2,85,0.00,,,0.55,WUHU216HW,2014-12-28 10:38:00,
2014-12-28 05:43:00,51.1,46.7,29.91,SSE,147,1.2,1.3,85,0.00,,,0.55,WUHU216HW,2014-12-28 10:43:00,
2014-12-28 05:48:00,51.1,46.7,29.91,SE,135,1.3,1.3,85,0.00,,,0.55,WUHU216HW,2014-12-28 10:48:00,
2014-12-28 05:53:00,51.1,46.7,29.91,ESE,113,1.6,1.6,85,0.00,,,0.55,WUHU216HW,2014-12-28 10:53:00,
2014-12-28 05:58:00,51.1,46.7,29.90,SSE,158,1.1,1.8,85,0.00,,,0.55,WUHU216HW,2014-12-28 10:58:00,
2014-12-28 06:03:00,51.1,46.7,29.91,SW,225,1.1,1.8,85,0.00,,,0.55,WUHU216HW,2014-12-28 11:03:00,
2014-12-28 06:08:00,51.1,46.7,29.91,SW,225,0.9,1.3,85,0.00,,,0.55,WUHU216HW,2014-12-28 11:08:00,
2014-12-28 06:13:00,51.1,46.7,29.92,SW,225,0.8,1.1,85,0.00,,,0.55,WUHU216HW,2014-12-28 11:13:00,
2014-12-28 06:18:00,51.1,46.7,29.92,WNW,293,0.4,1.1,85,0.00,,,0.55,WUHU216HW,2014-12-28 11:18:00,
2014-12-28 06:23:00,51.1,46.7,29.92,WNW,293,0.0,0.4,85,0.02,,,0.57,WUHU216HW,2014-12-28 11:23:00,
2014-12-28 06:28:00,51.1,46.7,29.92,WNW,293,0.0,0.0,85,0.02,,,0.57,WUHU216HW,2014-12-28 11:28:00,
2014-12-28 06:33:00,51.1,46.7,29.92,WNW,293,0.0,0.0,85,0.02,,,0.57,WUHU216HW,2014-12-28 11:33:00,
2014-12-28 06:38:00,51.1,46.7,29.92,SSE,158,0.2,1.1,85,0.02,,,0.57,WUHU216HW,2014-12-28 11:38:00,
2014-12-28 06:43:00,51.1,46.7,29.92,SE,135,2.2,2.2,85,0.04,,,0.59,WUHU216HW,2014-12-28 11:43:00,
2014-12-28 06:48:00,51.1,46.7,29.92,South,171,0.6,2.2,85,0.04,,,0.59,WUHU216HW,2014-12-28 11:48:00,
2014-12-28 06:53:00,51.3,46.9,29.92,SSW,203,0.9,1.3,85,0.06,,,0.61,WUHU216HW,2014-12-28 11:53:00,
2014-12-28 06:58:00,51.1,46.7,29.92,SSW,203,0.4,1.3,85,0.06,,,0.61,WUHU216HW,2014-12-28 11:58:00,
2014-12-28 07:03:00,51.3,46.9,29.92,SSW,203,0.0,1.3,85,0.08,,,0.63,WUHU216HW,2014-12-28 12:03:00,
2014-12-28 07:08:00,51.3,46.9,29.92,SSW,203,1.5,1.8,85,0.10,,,0.65,WUHU216HW,2014-12-28 12:08:00,
2014-12-28 07:13:00,51.3,46.9,29.92,WSW,248,1.1,1.8,85,0.10,,,0.65,WUHU216HW,2014-12-28 12:13:00,
2014-12-28 07:18:00,51.3,46.9,29.93,SSW,203,1.1,1.3,85,0.12,,,0.67,WUHU216HW,2014-12-28 12:18:00,
2014-12-28 07:23:00,51.3,46.9,29.89,East,90,6.7,6.7,85,0.10,,,0.67,WUHU216HW,2014-12-28 12:23:00,
2014-12-28 07:28:00,51.7,47.3,29.90,ESE,118,3.0,6.7,85,0.14,,,0.71,WUHU216HW,2014-12-28 12:28:00,
2014-12-28 07:33:00,51.8,47.4,29.92,South,180,2.0,5.4,85,0.16,,,0.73,WUHU216HW,2014-12-28 12:33:00,
2014-12-28 07:38:00,51.8,47.4,29.93,WSW,248,0.9,2.5,85,0.16,,,0.73,WUHU216HW,2014-12-28 12:38:00,
2014-12-28 07:43:00,51.8,47.4,29.93,SSE,158,1.8,3.1,85,0.14,,,0.73,WUHU216HW,2014-12-28 12:43:00,
2014-12-28 07:48:00,51.8,47.4,29.94,SE,135,1.1,3.1,85,0.14,,,0.73,WUHU216HW,2014-12-28 12:48:00,
2014-12-28 07:53:00,51.8,47.4,29.94,SSE,164,0.6,2.2,85,0.12,,,0.73,WUHU216HW,2014-12-28 12:53:00,
2014-12-28 07:58:00,51.8,47.4,29.94,SSE,158,1.5,2.2,85,0.12,,,0.73,WUHU216HW,2014-12-28 12:58:00,
2014-12-28 08:03:00,51.8,47.4,29.93,SSE,158,0.0,1.8,85,0.10,,,0.73,WUHU216HW,2014-12-28 13:03:00,
2014-12-28 08:08:00,51.7,47.3,29.94,SSE,158,0.0,0.7,85,0.08,,,0.73,WUHU216HW,2014-12-28 13:08:00,
2014-12-28 08:13:00,51.7,47.3,29.94,SSE,158,1.6,1.6,85,0.08,,,0.73,WUHU216HW,2014-12-28 13:13:00,
2014-12-28 08:18:00,51.7,47.3,29.94,ESE,113,1.5,2.5,85,0.06,,,0.73,WUHU216HW,2014-12-28 13:18:00,
2014-12-28 08:23:00,51.7,47.3,29.94,South,180,1.1,3.4,85,0.06,,,0.73,WUHU216HW,2014-12-28 13:23:00,
2014-12-28 08:28:00,51.8,47.4,29.94,SSE,158,1.3,3.4,85,0.04,,,0.75,WUHU216HW,2014-12-28 13:28:00,
2014-12-28 08:33:00,51.8,47.4,29.94,SSW,203,2.2,2.5,85,0.02,,,0.75,WUHU216HW,2014-12-28 13:33:00,
2014-12-28 08:38:00,51.8,47.4,29.94,SSE,158,0.0,2.2,85,0.02,,,0.75,WUHU216HW,2014-12-28 13:38:00,
2014-12-28 08:43:00,51.8,47.4,29.94,SE,135,0.0,1.1,85,0.02,,,0.75,WUHU216HW,2014-12-28 13:43:00,
2014-12-28 08:48:00,52.0,47.6,29.94,SE,135,0.0,0.9,85,0.02,,,0.75,WUHU216HW,2014-12-28 13:48:00,
2014-12-28 08:53:00,52.0,47.6,29.94,SE,135,0.0,0.0,85,0.02,,,0.75,WUHU216HW,2014-12-28 13:53:00,
2014-12-28 08:58:00,52.0,47.6,29.94,SE,135,0.0,0.9,85,0.02,,,0.75,WUHU216HW,2014-12-28 13:58:00,
2014-12-28 09:03:00,52.2,47.8,29.94,SE,135,0.0,0.9,85,0.02,,,0.75,WUHU216HW,2014-12-28 14:03:00,
2014-12-28 09:08:00,52.2,47.8,29.94,SE,135,0.0,0.0,85,0.02,,,0.75,WUHU216HW,2014-12-28 14:08:00,
2014-12-28 09:13:00,52.2,47.8,29.94,SE,135,0.0,0.4,85,0.02,,,0.75,WUHU216HW,2014-12-28 14:13:00,
2014-12-28 09:18:00,52.2,47.8,29.95,SE,135,0.4,0.4,85,0.02,,,0.75,WUHU216HW,2014-12-28 14:18:00,
2014-12-28 09:23:00,52.2,47.8,29.94,SE,135,0.0,0.4,85,0.00,,,0.75,WUHU216HW,2014-12-28 14:23:00,
2014-12-28 09:28:00,52.4,48.0,29.95,SSW,203,0.4,1.1,85,0.00,,,0.75,WUHU216HW,2014-12-28 14:28:00,
2014-12-28 09:33:00,52.4,48.0,29.95,SSW,203,0.0,1.1,85,0.00,,,0.75,WUHU216HW,2014-12-28 14:33:00,
2014-12-28 09:38:00,52.4,48.0,29.95,SSW,203,0.0,0.0,85,0.00,,,0.75,WUHU216HW,2014-12-28 14:38:00,
2014-12-28 09:43:00,52.6,48.2,29.95,SSW,203,0.0,0.0,85,0.00,,,0.75,WUHU216HW,2014-12-28 14:43:00,
2014-12-28 09:48:00,52.6,48.2,29.96,SSW,203,0.0,0.0,85,0.00,,,0.75,WUHU216HW,2014-12-28 14:48:00,
2014-12-28 09:53:00,52.7,48.3,29.96,SSW,203,0.0,0.0,85,0.00,,,0.75,WUHU216HW,2014-12-28 14:53:00,
2014-12-28 09:58:00,52.7,48.3,29.96,SSW,203,0.0,0.0,85,0.00,,,0.75,WUHU216HW,2014-12-28 14:58:00,
2014-12-28 10:03:00,52.7,48.3,29.96,SSW,203,0.0,0.7,85,0.02,,,0.77,WUHU216HW,2014-12-28 15:03:00,
2014-12-28 10:08:00,52.6,48.2,29.96,SE,135,1.1,1.1,85,0.02,,,0.77,WUHU216HW,2014-12-28 15:08:00,
2014-12-28 10:13:00,52.7,48.3,29.96,SE,135,0.0,1.1,85,0.02,,,0.77,WUHU216HW,2014-12-28 15:13:00,
2014-12-28 10:18:00,52.7,48.3,29.96,SE,135,0.0,1.1,85,0.02,,,0.77,WUHU216HW,2014-12-28 15:18:00,
2014-12-28 10:23:00,52.9,48.5,29.96,SSE,158,1.1,1.1,85,0.02,,,0.77,WUHU216HW,2014-12-28 15:23:00,
2014-12-28 10:28:00,52.9,48.5,29.96,SE,135,0.9,1.6,85,0.02,,,0.77,WUHU216HW,2014-12-28 15:28:00,
2014-12-28 10:33:00,53.1,48.7,29.96,SE,135,1.1,1.6,85,0.02,,,0.77,WUHU216HW,2014-12-28 15:33:00,
2014-12-28 10:38:00,53.3,48.9,29.96,SSE,158,1.8,2.2,85,0.02,,,0.77,WUHU216HW,2014-12-28 15:38:00,
2014-12-28 10:43:00,53.6,49.2,29.96,SSW,203,0.9,2.9,85,0.02,,,0.77,WUHU216HW,2014-12-28 15:43:00,
2014-12-28 10:48:00,53.6,49.2,29.96,SW,225,2.0,2.9,85,0.02,,,0.77,WUHU216HW,2014-12-28 15:48:00,
2014-12-28 10:53:00,54.0,49.6,29.96,SSW,203,0.8,2.2,85,0.02,,,0.77,WUHU216HW,2014-12-28 15:53:00,
2014-12-28 10:58:00,54.0,49.6,29.96,South,180,1.8,2.2,85,0.02,,,0.77,WUHU216HW,2014-12-28 15:58:00,
2014-12-28 11:03:00,54.2,49.4,29.96,SSE,158,0.7,2.5,84,0.00,,,0.77,WUHU216HW,2014-12-28 16:03:00,
2014-12-28 11:08:00,54.4,49.6,29.96,South,186,0.8,2.7,84,0.00,,,0.77,WUHU216HW,2014-12-28 16:08:00,
2014-12-28 11:13:00,54.4,49.6,29.96,SSE,158,1.5,2.7,84,0.00,,,0.77,WUHU216HW,2014-12-28 16:13:00,
2014-12-28 11:18:00,54.4,49.6,29.95,SE,135,1.1,2.5,84,0.00,,,0.77,WUHU216HW,2014-12-28 16:18:00,
2014-12-28 11:23:00,54.4,49.6,29.96,SSE,148,1.4,2.5,84,0.00,,,0.77,WUHU216HW,2014-12-28 16:23:00,
2014-12-28 11:28:00,54.4,49.6,29.95,SSW,203,2.2,2.2,84,0.00,,,0.77,WUHU216HW,2014-12-28 16:28:00,
2014-12-28 11:33:00,54.5,49.8,29.95,ESE,113,0.9,2.2,84,0.00,,,0.77,WUHU216HW,2014-12-28 16:33:00,
2014-12-28 11:38:00,54.5,49.8,29.95,SSW,203,0.9,1.6,84,0.00,,,0.77,WUHU216HW,2014-12-28 16:38:00,
2014-12-28 11:43:00,54.7,50.0,29.95,South,180,2.5,2.5,84,0.00,,,0.77,WUHU216HW,2014-12-28 16:43:00,
2014-12-28 11:48:00,54.9,50.1,29.94,SW,225,0.9,4.0,84,0.03,,,0.80,WUHU216HW,2014-12-28 16:48:00,
2014-12-28 11:53:00,55.1,50.3,29.94,SW,225,0.2,4.0,84,0.03,,,0.80,WUHU216HW,2014-12-28 16:53:00,
2014-12-28 11:58:00,55.4,50.6,29.94,SSW,203,2.0,2.0,84,0.05,,,0.82,WUHU216HW,2014-12-28 16:58:00,
2014-12-28 12:03:00,55.4,50.6,29.93,South,180,0.0,2.0,84,0.05,,,0.82,WUHU216HW,2014-12-28 17:03:00,
2014-12-28 12:08:00,55.4,50.6,29.93,SW,225,0.6,2.9,84,0.05,,,0.82,WUHU216HW,2014-12-28 17:08:00,
2014-12-28 12:13:00,55.3,50.5,29.93,SW,225,0.4,2.9,84,0.05,,,0.82,WUHU216HW,2014-12-28 17:13:00,
2014-12-28 12:18:00,55.4,50.6,29.93,SSW,203,0.4,1.1,84,0.05,,,0.82,WUHU216HW,2014-12-28 17:18:00,
2014-12-28 12:23:00,55.4,50.6,29.93,South,180,0.0,0.7,84,0.05,,,0.82,WUHU216HW,2014-12-28 17:23:00,
2014-12-28 12:28:00,55.6,50.8,29.93,SSE,158,0.0,0.4,84,0.05,,,0.82,WUHU216HW,2014-12-28 17:28:00,
2014-12-28 12:33:00,55.6,50.8,29.93,SW,225,0.0,1.3,84,0.05,,,0.82,WUHU216HW,2014-12-28 17:33:00,
2014-12-28 12:38:00,55.8,50.9,29.93,SSW,197,2.3,3.4,84,0.05,,,0.82,WUHU216HW,2014-12-28 17:38:00,
2014-12-28 12:43:00,56.2,51.3,29.92,SSW,203,0.8,3.4,84,0.02,,,0.82,WUHU216HW,2014-12-28 17:43:00,
2014-12-28 12:48:00,56.5,51.7,29.92,SSE,158,1.1,2.0,84,0.02,,,0.82,WUHU216HW,2014-12-28 17:48:00,
2014-12-28 12:53:00,56.9,52.0,29.92,West,270,1.8,2.2,84,0.00,,,0.82,WUHU216HW,2014-12-28 17:53:00,
2014-12-28 12:58:00,56.9,52.4,29.92,West,270,1.1,2.2,85,0.00,,,0.82,WUHU216HW,2014-12-28 17:58:00,
2014-12-28 13:02:00,57.1,52.6,29.92,SW,225,0.7,1.8,85,0.00,,,0.82,WUHU216HW,2014-12-28 18:02:00,
2014-12-28 13:07:00,57.1,52.6,29.92,SW,225,0.0,1.8,85,0.00,,,0.82,WUHU216HW,2014-12-28 18:07:00,
2014-12-28 13:12:00,57.1,52.6,29.92,SW,225,1.1,1.1,85,0.00,,,0.82,WUHU216HW,2014-12-28 18:12:00,
2014-12-28 13:17:00,56.9,52.4,29.91,SW,225,0.6,1.1,85,0.00,,,0.82,WUHU216HW,2014-12-28 18:17:00,
2014-12-28 13:22:00,56.9,52.4,29.91,NW,315,1.3,1.3,85,0.00,,,0.82,WUHU216HW,2014-12-28 18:22:00,
2014-12-28 13:27:00,56.7,52.2,29.91,NNW,331,2.1,2.9,85,0.00,,,0.82,WUHU216HW,2014-12-28 18:27:00,
2014-12-28 13:32:00,56.5,52.0,29.91,WNW,291,1.2,2.9,85,0.00,,,0.82,WUHU216HW,2014-12-28 18:32:00,
2014-12-28 13:37:00,56.5,52.0,29.91,SSE,158,0.7,1.3,85,0.00,,,0.82,WUHU216HW,2014-12-28 18:37:00,
2014-12-28 13:42:00,56.5,51.7,29.91,NNE,23,1.1,1.1,84,0.00,,,0.82,WUHU216HW,2014-12-28 18:42:00,
2014-12-28 13:47:00,56.5,51.7,29.90,NNW,338,0.7,1.8,84,0.00,,,0.82,WUHU216HW,2014-12-28 18:47:00,
2014-12-28 13:52:00,56.3,51.5,29.90,NNW,338,0.7,1.8,84,0.00,,,0.82,WUHU216HW,2014-12-28 18:52:00,
2014-12-28 13:57:00,56.3,51.5,29.90,North,0,0.8,1.8,84,0.00,,,0.82,WUHU216HW,2014-12-28 18:57:00,
2014-12-28 14:02:00,56.3,51.5,29.90,NNW,338,0.6,1.8,84,0.00,,,0.82,WUHU216HW,2014-12-28 19:02:00,
2014-12-28 14:07:00,56.3,51.5,29.90,WNW,293,0.0,1.8,84,0.00,,,0.82,WUHU216HW,2014-12-28 19:07:00,
2014-12-28 14:12:00,56.5,51.7,29.90,WNW,293,0.6,1.6,84,0.00,,,0.82,WUHU216HW,2014-12-28 19:12:00,
2014-12-28 14:17:00,56.3,51.5,29.90,NW,315,0.9,1.1,84,0.00,,,0.82,WUHU216HW,2014-12-28 19:17:00,
2014-12-28 14:22:00,56.5,51.7,29.90,North,0,1.3,1.3,84,0.00,,,0.82,WUHU216HW,2014-12-28 19:22:00,
2014-12-28 14:27:00,56.5,52.0,29.90,North,0,0.9,2.0,85,0.00,,,0.82,WUHU216HW,2014-12-28 19:27:00,
2014-12-28 14:32:00,56.5,51.7,29.89,North,0,0.7,2.0,84,0.00,,,0.82,WUHU216HW,2014-12-28 19:32:00,
2014-12-28 14:37:00,56.5,51.7,29.89,NNW,340,0.8,1.6,84,0.00,,,0.82,WUHU216HW,2014-12-28 19:37:00,
2014-12-28 14:42:00,56.5,51.7,29.90,NW,315,0.9,1.1,84,0.00,,,0.82,WUHU216HW,2014-12-28 19:42:00,
2014-12-28 14:47:00,56.5,52.0,29.90,NW,315,0.0,0.9,85,0.00,,,0.82,WUHU216HW,2014-12-28 19:47:00,
2014-12-28 14:52:00,56.7,52.2,29.89,WNW,293,0.4,1.1,85,0.00,,,0.82,WUHU216HW,2014-12-28 19:52:00,
2014-12-28 14:57:00,56.5,52.0,29.89,SE,135,1.3,1.8,85,0.00,,,0.82,WUHU216HW,2014-12-28 19:57:00,
2014-12-28 15:02:00,56.7,52.2,29.89,SE,135,0.8,1.8,85,0.00,,,0.82,WUHU216HW,2014-12-28 20:02:00,
2014-12-28 15:07:00,56.5,52.0,29.90,SE,135,0.0,1.1,85,0.00,,,0.82,WUHU216HW,2014-12-28 20:07:00,